{"data":{"norad_id":55623,"epoch":"2026-05-25T02:14:48.920064Z","epoch_age_seconds":66724,"freshness":"FRESH","line1":"1 55623U 23020BG  26145.09362176  .00582119  00000+0  19151-1 0  9993","line2":"2 55623  43.0029 282.7903 0001312  51.0172 309.0796 15.28644493180723","mean_motion":15.28644493,"eccentricity":0.0001312,"inclination_deg":43.0029,"raan_deg":282.7903,"arg_perigee_deg":51.0172,"mean_anomaly_deg":309.0796,"bstar":0.019151,"rev_number":18072,"period_min":94.201104743063,"perigee_km":478.96370123205,"apogee_km":480.76324055561,"semimajor_km":6858.0004708938,"source":"CELESTRAK","updated_at":"2026-05-25T13:38:17.846158Z"}}